Regional Weather Roundup
Issued by NWS

Home | Current Version | Previous Version | Text Only | Print | Product List | Glossary On
Versions: 1 2 3 4 5 6 7 8 9 10 11 12 13 14 15 16 17 18 19 20 21 22 23 24 25 26 27 28 29 30 31 32 33 34 35 36 37 38 39 40 41 42 43 44 45 46 47 48 49 50
000
ASUS45 KBOU 311810
RWRCO

WEATHER ROUNDUP FOR COLORADO
NATIONAL WEATHER SERVICE PUEBLO CO
1200 PM MDT FRI JUL 31 2015

NOTE: "FAIR" INDICATES FEW OR NO CLOUDS BELOW 12000 FEET WITH NO
SIGNIFICANT WEATHER AND/OR OBSTRUCTIONS TO VISIBILITY.

COZ001>005-013-030-031-311900-
...NORTHWEST COLORADO...

CITY           SKY/WX    TMP DP  RH WIND       PRES   REMARKS
CRAIG          SUNNY     86  36  16 VRB6      30.35F
HAYDEN         SUNNY     81  39  22 CALM      30.37F
MEEKER         SUNNY     83  34  17 SW8       30.37F
MOUNT WERNER   NOT AVBL
STEAMBOAT SPGS FAIR      79  45  29 CALM      30.39F
WALDEN         FAIR      73  34  23 SE3       30.49F
$$

COZ006>008-011-311900-
...WEST CENTRAL VALLEYS...

CITY           SKY/WX    TMP DP  RH WIND       PRES   REMARKS
GRAND JUNCTION SUNNY     85  42  22 VRB5      30.26F
MONTROSE       MOSUNNY   83  44  25 CALM      30.34F
EAGLE          MOSUNNY   81  43  26 CALM      30.39
RIFLE          SUNNY     84  34  16 W8        30.30F
DELTA          NOT AVBL
NUCLA          FAIR      75  50  41 CALM      30.41F
$$

COZ017>023-064>068-311900-
...SOUTHWEST COLORADO...

CITY           SKY/WX    TMP DP  RH WIND       PRES   REMARKS
DURANGO        CLOUDY    69  56  62 S6        30.43F
CORTEZ         MOSUNNY   74  57  55 SW5       30.37F
PAGOSA SPRINGS FAIR      71  50  48 CALM      30.50F
TELLURIDE      CLOUDY    71  40  32 W6        30.59F
WOLF CREEK PAS NOT AVBL
$$

COZ009-010-012-014-032>034-037-058>063-311900-
...CENTRAL COLORADO...

CITY           SKY/WX    TMP DP  RH WIND       PRES   REMARKS
ASPEN          MOSUNNY   78  43  28 CALM      30.45F
BUENA VISTA    FAIR      75  40  28 SE10      30.49F
COPPER MTN     CLOUDY    59  34  38 W17       30.81S
BERTHOUD PASS  CLOUDY    46  36  66 E14G23    30.86F
COTTONWOOD PAS PTSUNNY   68  36  30 SE6       30.64F
GUNNISON       MOSUNNY   75  45  33 N3        30.48F
KREMMLING      SUNNY     79  32  18 E5        30.45F
LEADVILLE      CLOUDY    66  34  30 VRB3      30.61F
MONARCH PASS   PTSUNNY   59  39  47 E15       30.90F
SALIDA         FAIR      78  44  29 SE9G16    30.54F
NIWOT RIDGE    NOT AVBL
SUNLIGHT       SUNNY     64  45  48 N5        30.73F
WILKERSON PASS CLOUDY    59  36  41 CALM      30.79S
$$

COZ069>075-311900-
...SAN LUIS VALLEY/SANGRE DE CRISTO MOUNTAINS...

CITY           SKY/WX    TMP DP  RH WIND       PRES   REMARKS
ALAMOSA        CLOUDY    72  52  49 VRB6      30.48F
LA VETA PASS   CLOUDY    59  45  58 MISG      30.68F
SAGUACHE       MOSUNNY   72  52  49 S7        30.51F
$$

COZ035-036-038>040-311900-
...NORTHERN COLORADO FRONT RANGE...

CITY           SKY/WX    TMP DP  RH WIND       PRES   REMARKS
DENVER INTL AP MOSUNNY   86  47  25 S7        30.32F
DMNS CITY PARK NOT AVBL
AURORA         MOSUNNY   84  49  29 S12G18    30.34F
FRONT RANGE AP MOSUNNY   84  46  26 E7        30.35F
ERIE MUNI ARPT FAIR      85  50  30 E7        30.31F
BOULDER MUN AP FAIR      82  52  34 E6        30.31F
CENTENNIAL     MOSUNNY   83  47  28 SE12      30.35F
BROOMFIELD     MOSUNNY   82  52  34 SE6       30.35F
LOVELAND       SUNNY     82  57  42 S6        30.29F
LONGMONT       FAIR      86  52  30 SE5       30.32F
$$

COZ041-046-047-076>085-087-088-311900-
...PIKES PEAK/PALMER DIVIDE AND SOUTHERN FOOTHILLS...

CITY           SKY/WX    TMP DP  RH WIND       PRES   REMARKS
COLO. SPRINGS  MOSUNNY   77  54  44 E6        30.41F
A. F. ACADEMY  MOSUNNY   78  50  37 S12G21    30.41F
ELLICOTT       FAIR     N/A N/A N/A S6        30.40F
FALCON         PTSUNNY   75  53  47 S6        30.47F
FORT CARSON    MOSUNNY   79  55  44 SE10      30.38F
LIMON          MOSUNNY   80  58  46 SE9G18    30.36F
MONUMENT HILL  MOSUNNY   77  46  33 S8        30.46F
TRINIDAD       CLOUDY    81  57  43 N6        30.35F
$$

COZ042>045-048>051-090-091-311900-
...NORTHEAST COLORADO...

CITY           SKY/WX    TMP DP  RH WIND       PRES   REMARKS
GREELEY ARPT   SUNNY     81  61  50 E5        30.29F
AKRON          SUNNY     86  53  32 S10       30.30F
BURLINGTON     MOSUNNY   83  61  47 S9        30.29F
WRAY           FAIR      89  58  34 SE6       30.25F
STERLING       FAIR      90  54  29 SE6       30.24F
HOLYOKE        NOT AVBL
FORT MORGAN    FAIR      86  54  33 CALM      30.29F
$$

COZ086-089-092>099-311900-
...SOUTHEAST COLORADO...

CITY           SKY/WX    TMP DP  RH WIND       PRES   REMARKS
PUEBLO         MOSUNNY   83  59  44 VRB5      30.30F
LA JUNTA       MOSUNNY   83  60  45 SE7       30.27F
LAMAR          SUNNY     84  61  45 S8G18     30.24F
SPRINGFIELD      N/A     78  63  59 S15       30.30F
$$



USA.gov is the U.S. government's official web portal to all federal, state and local government web resources and services.